2018-102L (43841 NORAD) Tracking and Keplerian Element Data

This shows tracking and keplerian element data for the satellite.

Feedback or suggestion? Click here.




ElementValue
Catalog43841
Name2018-102L
Epoch Orbit451
Epoch Day6.129441
Epoch Year2019
RAAN83.4276
Inclination97.6312
Eccentricity0.0016925
Argument of Perigee177.9793
Mean Anonmoly214.0063
Mean Motion15.09103137
Decay Rate6.87E-06
L11 43841U 18102L 19006.12944100 .00000687 00000-0 47313-4 0 9992
L22 43841 97.6312 83.4276 0016925 177.9793 214.0063 15.09103137 4512

Live tracking and technical data element details for 2018-102L (NORAD 43841). 2018-102L can be tracked NOW for your location showing map with azimuth and elevation plus other details from your city location.

Track the satellite on the map from your city or location and see movement details for azimuth, elevation, latitude, longitude, range, height, and movement on the map or in text.







IsCatalogInMostPopularTable: catalog: 43841, numindb: 63
Update: records affected: 1



GetName: 43841 2018-102L

Hit Count: updated at: Thu, 23 May 2019 15:04:54 GMT